This demonstration page uses our WeatherBlox Daily Observations layout. Learn more.

Left ArrowRight Arrow

Hourly Observations for April 20, 2015

Temp ( °F °C ) Dew Point ( °F °C ) Humidity (%) Winds ( mph kmh ) Pressure ( in mb ) Visibility ( mi km ) Precip ( " mm )
12:53 am 00:53 Clear 30 -1.1 21 -6.1 69 69 SSW 8 13 30.10 1019 10 16 N/A
1:53 am 01:53 Clear 26 -3.3 20 -6.7 78 78 WSW 5 7 30.10 1019 10 16 N/A
2:53 am 02:53 Clear 27 -2.8 19 -7.2 72 72 WNW 5 7 30.08 1019 10 16 N/A
3:53 am 03:53 Clear 24 -4.4 19 -7.2 81 81 SSW 5 7 30.08 1019 10 16 N/A
4:53 am 04:53 Clear 24 -4.4 19 -7.2 81 81 WNW 3 6 30.07 1018 10 16 N/A
5:53 am 05:53 Clear 24 -4.4 19 -7.2 81 81 N N/A 30.06 1018 10 16 N/A
6:53 am 06:53 Sunny 22 -5.6 18 -7.8 85 85 N N/A 30.06 1018 10 16 N/A
7:53 am 07:53 Sunny 29 -1.7 24 -4.4 82 82 W 5 7 30.05 1018 10 16 N/A
8:53 am 08:53 Sunny 37 2.8 24 -4.4 59 59 WSW 8 13 30.04 1017 10 16 N/A
9:53 am 09:53 Sunny 46 7.8 25 -3.9 44 44 WSW 6 9 30.01 1016 10 16 N/A
10:53 am 10:53 Sunny 53 11.7 22 -5.6 30 30 VRB 6 9 30.00 1016 10 16 N/A
11:53 am 11:53 Sunny 57 13.9 22 -5.6 26 26 W 7 11 29.97 1015 10 16 N/A
12:53 pm 12:53 Sunny 59 15 22 -5.6 24 24 undefined N/A 29.95 1014 10 16 N/A
1:53 pm 13:53 Sunny 61 16.1 23 -5 23 23 WSW 8 13 29.92 1013 10 16 N/A
2:53 pm 14:53 Partly Cloudy 63 17.2 25 -3.9 24 24 WSW 12 19 29.89 1012 10 16 N/A
3:53 pm 15:53 Mostly Cloudy 62 16.7 24 -4.4 23 23 W 8 13 29.86 1011 10 16 N/A
4:53 pm 16:53 Mostly Sunny 64 17.8 24 -4.4 22 22 NNW 12 19 29.85 1011 10 16 N/A
5:53 pm 17:53 Mostly Cloudy 66 18.9 25 -3.9 21 21 NW 15 24 29.84 1010 10 16 N/A
6:53 pm 18:53 Partly Cloudy 64 17.8 25 -3.9 23 23 NW 13 20 29.84 1011 10 16 N/A
7:53 pm 19:53 Sunny 58 14.4 25 -3.9 28 28 NW 8 13 29.84 1010 10 16 N/A
8:53 pm 20:53 Clear 53 11.7 25 -3.9 34 34 NNW 5 7 29.84 1010 10 16 N/A
9:53 pm 21:53 Clear 45 7.2 25 -3.9 46 46 SSW 3 6 29.84 1011 10 16 N/A
10:53 pm 22:53 Clear 38 3.3 26 -3.3 62 62 S 5 7 29.84 1011 10 16 N/A
11:53 pm 23:53 Clear 42 5.6 27 -2.8 55 55 N N/A 29.82 1010 10 16 N/A

Powered by AerisWeather